Voltar ao catálogo

COSMOS 2424

GLONASS

AtivoNavegaçãoMEO
NORAD 29672·PAYLOAD·🇷🇺 Russia

Lançado Dec 25, 2006 de Baikonur Cosmodrome

Loading…

Próximas Passagens (próximas 24 horas)

TLE

AtualizadoSource: Space-Track

Época: Sep 14, 2026, 12:14 UTC

1 29672U 06062C   26257.51026550  .00000021  00000-0  00000-0 0  9999
2 29672  64.6980 191.3305 0019334 176.1743 183.8435  2.13122867153487

Acompanhe COSMOS 2424 em tempo real com AllMySat

Download on the App Store